EW6790 Weather Reports


Display with metric or nautical units.
time (UTC)temp
F
wind
direction
speed
MPH
gust
MPH
rain 1hr
in
rain 24hr
in
rain mn
in
humidity
%
barometer
mb
20260506044543 40 330 2.0 5.0 0.00 0.00 0.00 55 1013.7
20260506043024 41 320 3.0 7.0 0.00 0.00 0.00 54 1013.8
20260506041503 42 311 4.0 8.0 0.00 0.00 0.00 52 1013.9
20260506040100 43 338 3.0 8.0 0.00 0.00 0.00 51 1013.7
20260506040001 43 334 3.0 8.0 0.00 0.00 0.00 51 1013.8
20260506034555 44 311 4.0 10.0 0.00 0.00 0.00 50 1013.6
20260506033036 44 319 5.0 12.0 0.00 0.00 0.00 49 1013.4
20260506031527 45 342 6.0 10.0 0.00 0.00 0.00 48 1013.4
20260506030011 46 340 5.0 11.0 0.00 0.00 0.00 47 1013.3
20260506024555 46 335 4.0 9.0 0.00 0.00 0.00 46 1013.1
20260506023057 46 347 5.0 13.0 0.00 0.00 0.00 46 1012.7
20260506021531 47 323 9.0 16.0 0.00 0.00 0.00 44 1012.5
20260506020030 47 304 3.0 8.0 0.00 0.00 0.00 44 1012.3
20260506014507 47 349 4.0 10.0 0.00 0.00 0.00 43 1012.0
20260506013006 48 279 6.0 12.0 0.00 0.00 0.00 40 1011.8
20260506011545 48 297 4.0 12.0 0.00 0.00 0.00 40 1011.7
20260506010053 49 329 8.0 15.0 0.00 0.00 0.00 39 1011.5
20260506004522 49 302 4.0 12.0 0.00 0.00 0.00 38 1011.3
20260506003022 50 309 6.0 14.0 0.00 0.00 0.00 38 1011.3
20260506001606 50 340 5.0 13.0 0.00 0.00 0.00 38 1011.1
20260506000059 50 311 4.0 14.0 0.00 0.00 0.00 37 1010.9
20260505234539 51 321 5.0 13.0 0.00 0.00 0.00 37 1010.8
20260505233045 51 345 8.0 13.0 0.00 0.00 0.00 36 1010.7
20260505231520 51 316 5.0 11.0 0.00 0.00 0.00 36 1010.7
20260505230025 52 300 5.0 14.0 0.00 0.00 0.00 35 1010.7
20260505224501 52 307 5.0 13.0 0.00 0.00 0.00 34 1010.6
20260505223004 52 307 6.0 15.0 0.00 0.00 0.00 35 1010.6
20260505221544 52 307 8.0 19.0 0.00 0.00 0.00 35 1010.5
20260505220043 52 292 6.0 12.0 0.00 0.00 0.00 36 1010.5
20260505214524 53 331 6.0 16.0 0.00 0.00 0.00 33 1010.5
20260505213027 53 322 5.0 16.0 0.00 0.00 0.00 34 1010.5
20260505211504 53 301 4.0 16.0 0.00 0.00 0.00 35 1010.7
20260505210003 53 300 6.0 13.0 0.00 0.00 0.00 35 1010.7
20260505204550 52 327 3.0 15.0 0.00 0.00 0.00 36 1010.7
20260505203049 52 309 3.0 11.0 0.00 0.00 0.00 37 1010.8
20260505201555 52 291 3.0 22.0 0.00 0.00 0.00 39 1010.9
20260505200047 52 290 5.0 13.0 0.00 0.00 0.00 38 1010.9
20260505194548 52 293 5.0 12.0 0.00 0.00 0.00 37 1010.9
20260505193046 52 287 3.0 16.0 0.00 0.00 0.00 38 1011.0
20260505191600 52 307 5.0 13.0 0.00 0.00 0.00 37 1010.9
20260505190054 52 311 2.0 10.0 0.00 0.00 0.00 37 1011.0
20260505184520 52 300 4.0 13.0 0.00 0.00 0.00 37 1011.1
20260505183017 51 306 4.0 10.0 0.00 0.00 0.00 39 1011.1
20260505181558 50 276 1.0 9.0 0.00 0.00 0.00 41 1011.2
20260505180056 50 332 4.0 8.0 0.00 0.00 0.00 40 1011.1
20260505174538 50 310 5.0 12.0 0.00 0.00 0.00 43 1011.2
20260505173046 49 316 3.0 9.0 0.00 0.00 0.00 45 1011.1
20260505171521 49 293 4.0 15.0 0.00 0.00 0.00 44 1011.1
20260505170019 49 341 4.0 10.0 0.00 0.00 0.00 44 1011.0
20260505164600 50 311 5.0 10.0 0.00 0.00 0.00 43 1011.0
20260505163056 49 292 3.0 9.0 0.00 0.00 0.00 43 1011.0
20260505161534 49 283 3.0 8.0 0.00 0.00 0.00 44 1011.1
20260505153017 48 257 4.0 17.0 0.00 0.00 0.00 47 1011.0
20260505151520 48 264 2.0 7.0 0.00 0.00 0.00 50 1011.0
20260505124527 0 0.0 0.0 0.00 0.00 0.00 1010.0
20260505123005 0 0.0 0.0 0.00 0.00 0.00 1010.0
20260505121502 0 0.0 0.0 0.00 0.00 0.00 1009.8
20260505120100 0 0.0 0.0 0.00 0.00 0.00 1009.7
20260505114535 0 0.0 0.0 0.00 0.00 0.00 1009.4
20260505113012 0 0.0 0.0 0.00 0.00 0.00 1009.1
20260505111508 0 0.0 0.0 0.00 0.00 0.00 1008.8
20260505101524 36 293 1.0 3.0 0.00 0.00 0.00 70 1008.0
20260505100004 36 299 1.0 2.0 0.00 0.00 0.00 70 1007.9
20260505094501 36 307 0.0 3.0 0.00 0.00 0.00 70 1008.0
20260505093043 36 280 0.0 2.0 0.00 0.00 0.00 69 1007.9
20260505091539 37 278 0.0 2.0 0.00 0.00 0.00 66 1007.9
20260505090036 38 299 0.0 2.0 0.00 0.00 0.00 65 1007.7
20260505084518 38 298 0.0 3.0 0.00 0.00 0.00 65 1007.6
20260505083057 39 302 0.0 2.0 0.00 0.00 0.00 63 1007.5
20260505081553 39 312 1.0 2.0 0.00 0.00 0.00 62 1007.3
20260505080038 40 309 1.0 2.0 0.00 0.00 0.00 61 1007.2
20260505074531 40 311 1.0 3.0 0.00 0.00 0.00 60 1007.1
20260505073019 41 314 1.0 3.0 0.00 0.00 0.00 58 1007.0
20260505071515 42 308 1.0 3.0 0.00 0.00 0.00 56 1006.9
20260505070048 44 314 2.0 6.0 0.00 0.00 0.00 54 1006.8
20260505064548 44 313 5.0 11.0 0.00 0.00 0.00 53 1006.9
20260505063034 43 295 2.0 7.0 0.00 0.00 0.00 54 1007.0
20260505061546 43 342 5.0 10.0 0.00 0.00 0.00 54 1006.9
20260505060034 43 318 4.0 9.0 0.00 0.00 0.00 55 1006.9